[[[{"header":{"parameterUnit":"kt","parameterCategory":2,"dx":1,"dy":1,"la1":30.253999710083008,"la2":30.299108505249023,"lo1":-89.0895004272461,"lo2":-89.04439544677734,"nx":28,"ny":28,"refTime":"2022-10-13T21:00:00:Z","depth":0,"parameterNumber":1,"parameterNumberName":"U-component_of_WINDS"},"data":[-0.8218,-0.8148,-0.8149,-0.8069,-0.8056,-0.8001,-0.7982,-0.7956,-0.7936,-0.7871,-0.7833,-0.7826,-0.7806,-0.776,-0.7718,-0.7716,-0.7696,-0.7671,-0.7672,-0.7787,-0.7803,-0.7818,-0.7833,-0.7668,-0.7668,-0.7551,-0.755,-0.7549,-0.83,-0.8286,-0.8246,-0.8206,-0.817,-0.8195,-0.8165,-0.8133,-0.8083,-0.8059,-0.8022,-0.7964,-0.7918,-0.7907,-0.7862,-0.7828,-0.7836,-0.7816,-0.7816,-0.7811,-0.7936,-0.7952,-0.781,-0.781,-0.781,-0.781,-0.781,-0.781,-0.8448,-0.8407,-0.8384,-0.8339,-0.832,-0.8293,-0.8253,-0.8247,-0.8206,-0.8161,-0.817,-0.8114,-0.8089,-0.8036,-0.8019,-0.7974,-0.7996,-0.7974,-0.7967,-0.796,-0.795,-0.8113,-0.7968,-0.7968,-0.7968,-0.7969,-0.7969,0,-0.8556,-0.8559,-0.8521,-0.8481,-0.8449,-0.8419,-0.8391,-0.8367,-0.8375,-0.8341,-0.8292,-0.8263,-0.8207,-0.816,-0.812,-0.8106,-0.8125,-0.8129,-0.8113,-0.8104,-0.8101,-0.8097,-0.8295,-0.8132,-0.8134,-0.8135,-0.8135,-0.8136,-0.8701,-0.8655,-0.8632,-0.8604,-0.859,-0.8546,-0.8519,-0.853,-0.8501,-0.8468,-0.8431,-0.8385,-0.8348,-0.827,-0.8261,-0.8219,-0.8227,-0.8164,-0.8221,-0.8215,-0.822,-0.8221,-0.8214,-0.8151,-0.8149,-0.8148,-0.8146,0,-0.8782,-0.8785,-0.8713,-0.8695,-0.8689,-0.8639,-0.8623,-0.8582,-0.8581,-0.8524,-0.8512,-0.8508,-0.846,-0.8462,-0.8407,-0.8409,-0.8323,-0.8335,-0.8331,-0.8332,-0.8272,-0.8275,-0.8087,-0.8061,-0.8237,-0.8236,-0.8234,0,-0.8905,-0.8844,-0.885,-0.8808,-0.8741,-0.8753,-0.8685,-0.8677,-0.8657,-0.8612,-0.8637,-0.8595,-0.8605,-0.8563,-0.8566,-0.8497,-0.8489,-0.8484,-0.8485,-0.8479,-0.8479,-0.846,-0.8465,-0.8494,-0.8495,-0.8496,-0.8497,0,-0.9027,-0.8961,-0.8895,-0.8879,-0.8854,-0.8822,-0.881,-0.8788,-0.8762,-0.8729,-0.8712,-0.8673,-0.8651,-0.862,-0.8623,-0.8661,-0.8541,-0.8594,-0.8536,-0.8535,-0.8505,-0.8506,-0.8343,-0.8498,-0.8498,-0.8499,-0.8499,0,-0.9125,-0.9093,-0.8998,-0.8976,-0.8958,-0.8915,-0.8876,-0.884,-0.8815,-0.8815,-0.8789,-0.8804,-0.8748,-0.8799,-0.872,-0.8767,-0.8743,-0.8735,-0.8731,-0.8722,-0.8778,-0.8679,-0.8528,-0.851,-0.8719,-0.8721,-0.8722,0,-0.9262,-0.9167,-0.9177,-0.9086,-0.9042,-0.9071,-0.9023,-0.9001,-0.8996,-0.8957,-0.8953,-0.8908,-0.8948,-0.8934,-0.8895,-0.8886,-0.8825,-0.8896,-0.8834,-0.8832,-0.8835,-0.8697,-0.8671,-0.8562,-0.8746,-0.8743,-0.8742,0,-0.9368,-0.9339,-0.9322,-0.9304,-0.9278,-0.9242,-0.9188,-0.9147,-0.912,-0.9095,-0.9047,-0.8988,-0.9013,-0.8991,-0.8999,-0.8958,-0.8867,-0.8991,-0.8991,-0.8965,-0.876,-0.8735,-0.8717,-0.8882,-0.8879,-0.8877,-0.876,0,-0.9506,-0.9461,-0.9417,-0.938,-0.9353,-0.9298,-0.9301,-0.9272,-0.9283,-0.9279,-0.9212,-0.9195,-0.9153,-0.9135,-0.9145,-0.9053,-0.9067,-0.9096,-0.9142,-0.9054,-0.9015,-0.9,-0.92,-0.9201,-0.9202,-0.9203,0,0,-0.9634,-0.9569,-0.9582,-0.953,-0.9507,-0.9539,-0.9479,-0.9461,-0.9424,-0.9406,-0.9434,-0.9346,-0.9331,-0.9248,-0.9221,-0.9206,-0.9188,-0.9219,-0.9097,-0.9085,-0.9074,-0.9033,-0.9017,-0.9205,-0.9206,-0.9206,-0.9207,0,-0.9684,-0.9671,-0.9614,-0.9596,-0.957,-0.9569,-0.9555,-0.9535,-0.9529,-0.9465,-0.949,-0.945,-0.9382,-0.936,-0.934,-0.9231,-0.9249,-0.9219,-0.9156,-0.9109,-0.9096,-0.9084,-0.9041,-0.9025,-0.921,-0.9209,-0.9209,0,-0.9786,-0.9771,-0.9745,-0.9698,-0.9681,-0.9636,-0.9687,-0.9638,-0.9604,-0.964,-0.9575,-0.9566,-0.9539,-0.9463,-0.9429,-0.9452,-0.9305,-0.9354,-0.9346,-0.9341,-0.9295,-0.9279,-0.9265,-0.9452,-0.9453,-0.9454,0,0,-0.9828,-0.9787,-0.9774,-0.9709,-0.9697,-0.9695,-0.9672,-0.9681,-0.9657,-0.9647,-0.9635,-0.961,-0.957,-0.9543,-0.9506,-0.9423,-0.9416,-0.9383,-0.9372,-0.9363,-0.9352,-0.9304,-0.9288,-0.9457,-0.9457,-0.9457,0,0,-0.9848,-0.9831,-0.9847,-0.9772,-0.9749,-0.9731,-0.969,-0.9708,-0.9675,-0.9681,-0.9692,-0.9686,-0.9615,-0.9605,-0.9647,-0.9521,-0.9568,-0.9558,-0.953,-0.9516,-0.9504,-0.9506,-0.9694,0,0,0,0,0,-0.99,-0.9834,-0.9848,-0.9836,-0.9777,-0.9723,-0.9716,-0.9724,-0.9756,-0.9723,-0.9716,-0.9739,-0.9629,-0.9666,-0.9654,-0.9606,-0.9497,-0.949,-0.9484,-0.9427,-0.9412,-0.94,0,0,0,0,0,0,-0.9896,-0.9881,-0.985,-0.9829,-0.9816,-0.9726,-0.9782,-0.9782,-0.9759,-0.9765,-0.974,-0.9739,-0.9744,-0.9674,-0.9662,-0.9616,-0.9698,-0.9495,-0.9489,-0.9483,-0.9422,-0.941,-0.9399,0,0,0,0,0,-0.9892,-0.988,-0.9784,-0.983,-0.9819,-0.9813,-0.9784,-0.9785,-0.9768,-0.9756,-0.9756,-0.9775,-0.9742,-0.9733,-0.9667,-0.9621,-0.9706,-0.9702,-0.9491,-0.9486,-0.9482,-0.9416,0,0,0,0,0,0,-0.9889,-0.988,-0.9782,-0.9779,-0.9856,-0.9818,-0.9813,-0.9788,-0.9761,-0.9759,-0.9793,-0.9797,-0.974,-0.9734,-0.9726,-0.9622,-0.9713,-0.9708,-0.9705,-0.9487,-0.9483,-0.948,0,0,0,0,0,0,-0.9886,-0.9877,-0.978,-0.9813,-0.9813,-0.9823,-0.9818,-0.9763,-0.976,-0.9799,-0.9802,-0.9795,-0.9751,-0.9734,-0.9728,-0.9643,-0.9718,-0.9713,-0.971,-0.9709,-0.9484,-0.9481,0,0,0,0,0,0,-0.9883,-0.9874,-0.9814,-0.9814,-0.9815,-0.9779,-0.9775,-0.9714,-0.9789,-0.9799,-0.9796,-0.9799,-0.975,-0.9745,-0.9729,-0.9646,-0.9643,-0.9717,-0.9715,-0.9713,-0.9711,0,0,0,0,0,0,0,-0.9879,-0.9932,-0.9801,-0.9815,-0.9816,-0.9749,-0.9748,-0.9747,-0.9789,-0.9792,-0.9795,-0.9798,-0.9742,-0.9737,-0.9733,-0.9648,0,0,-0.9718,-0.9716,0,0,0,0,0,0,0,0,-0.9936,-0.9933,-0.9801,-0.9801,-0.98,-0.9749,-0.9748,-0.9747,-0.979,-0.9792,-0.9794,-0.9796,-0.9741,-0.9737,-0.9733,0,0,0,0,0,0,0,0,0,0,0,0,0,0,0,-0.9801,-0.9801,0,-0.9749,-0.9748,-0.9747,-0.979,-0.9792,-0.9794,-0.9796,-0.974,-0.9736,-0.9733,0,0,0,0,0,0,0,0,0,0,0,0,0,0,0,0,0,0,0,0,0,0,0,0,0,0,0,0,0,0,0,0,0,0,0,0,0,0,0,0,0,0,0,0,0,0,0,0,0,0,0,0,0,0,0,0,0,0,0,0,0,0,0,0,0,0,0,0,0]}],[{"header":{"parameterUnit":"kt","parameterCategory":2,"dx":1,"dy":1,"la1":30.253999710083008,"la2":30.299108505249023,"lo1":-89.0895004272461,"lo2":-89.04439544677734,"nx":28,"ny":28,"refTime":"2022-10-13T21:00:00:Z","depth":0,"parameterNumber":2,"parameterNumberName":"V-component_of_WINDS"},"data":[-2.1827,-2.1778,-2.1766,-2.1704,-2.1683,-2.1638,-2.1618,-2.1591,-2.1565,-2.1509,-2.1474,-2.1455,-2.1423,-2.1377,-2.1338,-2.133,-2.1315,-2.1308,-2.13,-2.1344,-2.1349,-2.1354,-2.1366,-2.1304,-2.1304,-2.1257,-2.1256,-2.1256,-2.1866,-2.1845,-2.1808,-2.1764,-2.1732,-2.1733,-2.1697,-2.167,-2.1629,-2.1596,-2.156,-2.1509,-2.1466,-2.1434,-2.139,-2.1366,-2.1363,-2.1355,-2.1357,-2.1353,-2.1399,-2.1412,-2.1359,-2.1359,-2.1359,-2.1359,-2.1359,-2.1359,-2.1933,-2.1904,-2.187,-2.1829,-2.1803,-2.1773,-2.1742,-2.172,-2.1682,-2.1635,-2.1625,-2.1577,-2.154,-2.1478,-2.1454,-2.1415,-2.1421,-2.1407,-2.1404,-2.1402,-2.1402,-2.1478,-2.1406,-2.1406,-2.1407,-2.1407,-2.1407,0,-2.1979,-2.1972,-2.1934,-2.1894,-2.1863,-2.1829,-2.1796,-2.1776,-2.1751,-2.172,-2.1674,-2.1645,-2.1587,-2.1541,-2.1495,-2.1471,-2.1466,-2.1462,-2.1454,-2.146,-2.1472,-2.1468,-2.1546,-2.1464,-2.1465,-2.1465,-2.1465,-2.1465,-2.2049,-2.2014,-2.1971,-2.1947,-2.1925,-2.1885,-2.1858,-2.1838,-2.181,-2.1765,-2.1738,-2.1691,-2.1654,-2.1579,-2.155,-2.1505,-2.1502,-2.1474,-2.1495,-2.1503,-2.1505,-2.1508,-2.1505,-2.147,-2.1469,-2.1469,-2.1469,0,-2.209,-2.2068,-2.2009,-2.1969,-2.1958,-2.1922,-2.1886,-2.1854,-2.1834,-2.1786,-2.1774,-2.1742,-2.1695,-2.167,-2.161,-2.1599,-2.154,-2.1537,-2.1554,-2.1553,-2.1526,-2.153,-2.1439,-2.1427,-2.1488,-2.1488,-2.1487,0,-2.2141,-2.2095,-2.2066,-2.2032,-2.1981,-2.1962,-2.1911,-2.1889,-2.1856,-2.1818,-2.1809,-2.1773,-2.1746,-2.1706,-2.1688,-2.1635,-2.1623,-2.1611,-2.1607,-2.1613,-2.1615,-2.1597,-2.1601,-2.1596,-2.1597,-2.1597,-2.1598,0,-2.2209,-2.2137,-2.2083,-2.2063,-2.2013,-2.1988,-2.1965,-2.1927,-2.19,-2.186,-2.1842,-2.1795,-2.177,-2.1734,-2.1712,-2.1728,-2.1645,-2.1662,-2.1633,-2.1634,-2.1617,-2.1618,-2.1543,-2.1598,-2.1598,-2.1599,-2.1599,0,-2.2247,-2.2208,-2.2132,-2.2091,-2.2073,-2.2035,-2.199,-2.1952,-2.1912,-2.1899,-2.1867,-2.1857,-2.1806,-2.1826,-2.1756,-2.1784,-2.176,-2.1743,-2.1741,-2.1736,-2.1759,-2.1723,-2.1652,-2.1645,-2.1731,-2.1732,-2.1733,0,-2.2332,-2.2248,-2.2231,-2.2157,-2.2115,-2.2109,-2.2067,-2.2032,-2.2011,-2.1971,-2.1947,-2.19,-2.1909,-2.1891,-2.186,-2.1832,-2.1796,-2.1836,-2.1779,-2.1777,-2.1793,-2.1728,-2.1725,-2.1671,-2.1746,-2.1745,-2.1744,0,-2.2395,-2.2335,-2.2322,-2.2299,-2.2249,-2.2212,-2.2163,-2.2114,-2.2089,-2.2048,-2.2007,-2.1939,-2.1944,-2.1913,-2.1898,-2.1867,-2.182,-2.1876,-2.1874,-2.1869,-2.175,-2.1748,-2.1739,-2.1817,-2.1815,-2.1814,-2.1755,0,-2.2463,-2.2416,-2.2381,-2.2328,-2.2295,-2.2246,-2.222,-2.2189,-2.218,-2.2158,-2.2095,-2.2056,-2.2002,-2.1983,-2.1972,-2.1908,-2.1915,-2.1919,-2.1937,-2.1893,-2.1873,-2.1865,-2.197,-2.197,-2.197,-2.1971,0,0,-2.2551,-2.2483,-2.2464,-2.2416,-2.2388,-2.2381,-2.2331,-2.2301,-2.2241,-2.2221,-2.2231,-2.213,-2.2096,-2.2022,-2.2006,-2.1983,-2.1969,-2.1984,-2.1914,-2.1908,-2.1902,-2.1881,-2.1872,-2.1971,-2.1971,-2.1971,-2.1971,0,-2.257,-2.2539,-2.249,-2.246,-2.2414,-2.2393,-2.2381,-2.2333,-2.2316,-2.2253,-2.2246,-2.2205,-2.2121,-2.2088,-2.2061,-2.1993,-2.199,-2.1978,-2.1953,-2.1918,-2.1911,-2.1905,-2.1883,-2.1876,-2.1972,-2.1972,-2.1972,0,-2.263,-2.2595,-2.2568,-2.2502,-2.247,-2.2425,-2.2438,-2.2388,-2.2354,-2.2345,-2.2282,-2.2256,-2.2208,-2.214,-2.2108,-2.2116,-2.201,-2.2036,-2.2034,-2.203,-2.1994,-2.1986,-2.1979,-2.2072,-2.2072,-2.2073,0,0,-2.265,-2.2606,-2.2561,-2.2504,-2.2485,-2.2452,-2.2424,-2.2412,-2.237,-2.2353,-2.2319,-2.2278,-2.223,-2.2198,-2.2151,-2.2079,-2.2068,-2.205,-2.2045,-2.2041,-2.2035,-2.1999,-2.1991,-2.2075,-2.2075,-2.2075,0,0,-2.2659,-2.2606,-2.2605,-2.2535,-2.2497,-2.2447,-2.2413,-2.2409,-2.2364,-2.2366,-2.2341,-2.2328,-2.2264,-2.2237,-2.2265,-2.2157,-2.2174,-2.2167,-2.2177,-2.217,-2.2165,-2.2174,-2.2271,0,0,0,0,0,-2.2665,-2.2613,-2.2613,-2.2597,-2.251,-2.2448,-2.2437,-2.2416,-2.243,-2.2404,-2.2375,-2.2372,-2.2248,-2.2272,-2.2256,-2.2224,-2.2098,-2.2094,-2.209,-2.2085,-2.2079,-2.2074,0,0,0,0,0,0,-2.2659,-2.264,-2.2614,-2.2563,-2.2543,-2.245,-2.247,-2.2463,-2.2433,-2.2434,-2.2378,-2.237,-2.235,-2.2279,-2.2264,-2.2235,-2.2276,-2.2096,-2.2093,-2.209,-2.2083,-2.2078,-2.2074,0,0,0,0,0,-2.2654,-2.2638,-2.2505,-2.2563,-2.2546,-2.2506,-2.2472,-2.2466,-2.2442,-2.2396,-2.2389,-2.2429,-2.235,-2.2336,-2.227,-2.2242,-2.2286,-2.228,-2.2094,-2.2091,-2.2089,-2.2081,0,0,0,0,0,0,-2.265,-2.2632,-2.2501,-2.2495,-2.2581,-2.2511,-2.2499,-2.2469,-2.2406,-2.2398,-2.2446,-2.2447,-2.2349,-2.2338,-2.2328,-2.2246,-2.2294,-2.2288,-2.2285,-2.2092,-2.209,-2.2088,0,0,0,0,0,0,-2.264,-2.2627,-2.2498,-2.2522,-2.2518,-2.2516,-2.2505,-2.2445,-2.2405,-2.2459,-2.2459,-2.2447,-2.2364,-2.234,-2.2332,-2.2238,-2.23,-2.2294,-2.2291,-2.2289,-2.209,-2.2089,0,0,0,0,0,0,-2.2634,-2.2623,-2.2523,-2.2521,-2.2518,-2.2448,-2.2461,-2.2373,-2.2428,-2.2462,-2.2433,-2.2434,-2.2365,-2.2356,-2.2334,-2.2244,-2.2239,-2.2299,-2.2296,-2.2293,-2.2292,0,0,0,0,0,0,0,-2.2629,-2.2711,-2.2537,-2.252,-2.2517,-2.2439,-2.2438,-2.2436,-2.2429,-2.243,-2.2432,-2.2434,-2.2329,-2.2323,-2.2318,-2.2249,0,0,-2.23,-2.2297,0,0,0,0,0,0,0,0,-2.2715,-2.2712,-2.2537,-2.2536,-2.2535,-2.2439,-2.2438,-2.2436,-2.2429,-2.243,-2.2432,-2.2433,-2.2327,-2.2323,-2.2318,0,0,0,0,0,0,0,0,0,0,0,0,0,0,0,-2.2537,-2.2536,0,-2.2439,-2.2438,-2.2437,-2.2429,-2.243,-2.2431,-2.2433,-2.2326,-2.2322,-2.2319,0,0,0,0,0,0,0,0,0,0,0,0,0,0,0,0,0,0,0,0,0,0,0,0,0,0,0,0,0,0,0,0,0,0,0,0,0,0,0,0,0,0,0,0,0,0,0,0,0,0,0,0,0,0,0,0,0,0,0,0,0,0,0,0,0,0,0,0,0]}]]]